Address 0xa12f7d0b8c5bd80dbf5f2bc40a7780202debe63f 1

Overview

Balance:
1.170329527 MATIC
My Name Tag:
Not Available

Txn Hash Method
Block
From
To
Value [Txn Fee]
0x416d787a9286c2d35b75c519086e2eddec71f7ec8c0abacbf801679d5c61bb430xec79af5f247444412022-02-09 4:23:10138 days 9 hrs ago0xa12f7d0b8c5bd80dbf5f2bc40a7780202debe63fOUT 0x441835c54e60f844a5e564dc67d00d0d5561e45e0 MATIC0.0166586510
0xdf978d29fcaeca0d6fade09deb8df96b94c1937db8a4a8cb63bc77a763f016d40xec79af5f247442902022-02-09 4:17:02138 days 9 hrs ago0xa12f7d0b8c5bd80dbf5f2bc40a7780202debe63fOUT 0x441835c54e60f844a5e564dc67d00d0d5561e45e0 MATIC0.0163392510
0x30ce82b0881c3b9f1d0cf52534e02a9816a6ad42b370aa4ab2bfb602358a1cf50xec79af5f244157342022-01-30 12:10:33148 days 2 hrs ago0xa12f7d0b8c5bd80dbf5f2bc40a7780202debe63fOUT 0x441835c54e60f844a5e564dc67d00d0d5561e45e0 MATIC0.0013839810
0x58cdf1cb4d5497206a9e5c8c222ccd20e9d2c4767f6f067046ce9e98af9c8e580xec79af5f243996832022-01-30 1:20:43148 days 12 hrs ago0xa12f7d0b8c5bd80dbf5f2bc40a7780202debe63fOUT 0x441835c54e60f844a5e564dc67d00d0d5561e45e0 MATIC0.001710210
0x3f1137e673254a9468ee1849aa076a28cf0ea064bc0a2853c8029cb8a33fc59e0xec79af5f243483522022-01-28 13:32:13150 days 43 mins ago0xa12f7d0b8c5bd80dbf5f2bc40a7780202debe63fOUT 0x441835c54e60f844a5e564dc67d00d0d5561e45e0 MATIC0.0009776910
0x20fd64aaed33eb8747e96208ef58a18c315730e8e2af7e5d218d600445b6a2430xec79af5f243392002022-01-28 6:58:41150 days 7 hrs ago0xa12f7d0b8c5bd80dbf5f2bc40a7780202debe63fOUT 0x441835c54e60f844a5e564dc67d00d0d5561e45e0 MATIC0.0043401210
0xf3e6a643f7ca07febc2be086b659399ee02454634140d788762e94024e788d950xec79af5f243325022022-01-28 2:20:07150 days 11 hrs ago0xa12f7d0b8c5bd80dbf5f2bc40a7780202debe63fOUT 0x441835c54e60f844a5e564dc67d00d0d5561e45e0 MATIC0.0014542110
0x640da73110c2b3b430e47fdf5475b379efc7ec5c538fc2d3b6c8c307ca904e5c0xec79af5f243219962022-01-27 18:04:15150 days 20 hrs ago0xa12f7d0b8c5bd80dbf5f2bc40a7780202debe63fOUT 0x441835c54e60f844a5e564dc67d00d0d5561e45e0 MATIC0.0009749410
0x1848cbe11be2347959d8f526b01f0ef8efa51f0add6d851161cfddcc49ef2c180xec79af5f243199702022-01-27 16:40:23150 days 21 hrs ago0xa12f7d0b8c5bd80dbf5f2bc40a7780202debe63fOUT 0x441835c54e60f844a5e564dc67d00d0d5561e45e0 MATIC0.0009776910
0xe76b2f92aab13808d1adf63de93e2f511caae7264f403ce4848289c1d8caf91b0xec79af5f243181802022-01-27 15:11:11150 days 23 hrs ago0xa12f7d0b8c5bd80dbf5f2bc40a7780202debe63fOUT 0x441835c54e60f844a5e564dc67d00d0d5561e45e0 MATIC0.001116210
0x01e56e23b582dd8b43138e2ed056de96111ed839615479e39031529e8b5fbb5a0xec79af5f242945512022-01-26 21:55:51151 days 16 hrs ago0xa12f7d0b8c5bd80dbf5f2bc40a7780202debe63fOUT 0x441835c54e60f844a5e564dc67d00d0d5561e45e0 MATIC0.001116210
0xfbfd22103ebcfa56905118842c5870cce31a9bb7ae3607dda00063a3b96d5d640xec79af5f242891952022-01-26 17:15:03151 days 21 hrs ago0xa12f7d0b8c5bd80dbf5f2bc40a7780202debe63fOUT 0x441835c54e60f844a5e564dc67d00d0d5561e45e0 MATIC0.0009749410
0x259a2876f190c107eae01f6157b2e5c43f27a7ea41bcdb4a89ec73a49fb5716b0x0b4d852f242858742022-01-26 14:55:57151 days 23 hrs ago0xa12f7d0b8c5bd80dbf5f2bc40a7780202debe63fOUT 0x441835c54e60f844a5e564dc67d00d0d5561e45e0 MATIC0.0040244110
0xade361dee00abdbbc13bde785192f9ea06df7e9871e7d3b855f1ff4b0185d7ab0x0b4d852f242810242022-01-26 11:50:05152 days 2 hrs ago0xa12f7d0b8c5bd80dbf5f2bc40a7780202debe63fOUT 0x441835c54e60f844a5e564dc67d00d0d5561e45e0 MATIC0.0039765310
0xb9297a1486e05e46686d9830d87e7afec1ed1a0abbf89797e7e842a28c8821c60xa7ed88f4242784292022-01-26 9:57:23152 days 4 hrs ago0xa12f7d0b8c5bd80dbf5f2bc40a7780202debe63fOUT 0x441835c54e60f844a5e564dc67d00d0d5561e45e0 MATIC0.0015416510
0xadbffd57069b71edffedbd7dff4b1fe3a6fca1dfcd9110d268c5241081dd4ca90xec79af5f242769682022-01-26 8:53:35152 days 5 hrs ago0xa12f7d0b8c5bd80dbf5f2bc40a7780202debe63fOUT 0x441835c54e60f844a5e564dc67d00d0d5561e45e0 MATIC0.0013630210
0x2ff9c31410272d9ad6b89b8c4623ada6b63ce1e2efa0a74ab6ad5918bd58f41a0xec79af5f242765062022-01-26 8:34:13152 days 5 hrs ago0xa12f7d0b8c5bd80dbf5f2bc40a7780202debe63fOUT 0x441835c54e60f844a5e564dc67d00d0d5561e45e0 MATIC0.0009749410
0x4ea72085352ea6fb4a96ff8d87e99a39a6e158a5544a0af8d74ade1b004330c80xec79af5f242760672022-01-26 8:14:51152 days 6 hrs ago0xa12f7d0b8c5bd80dbf5f2bc40a7780202debe63fOUT 0x441835c54e60f844a5e564dc67d00d0d5561e45e0 MATIC0.0009749410
0x68964fb070fb67f07068784fef028167ffc931102c47a4f8b0b6ff6969216ea20xec79af5f242748262022-01-26 7:21:33152 days 6 hrs ago0xa12f7d0b8c5bd80dbf5f2bc40a7780202debe63fOUT 0x441835c54e60f844a5e564dc67d00d0d5561e45e0 MATIC0.0043410
0x354467cc1b034954c5c86d6683e4edbf1c3d4a593a68c3b228458fa207be2cd00xec79af5f242744902022-01-26 7:07:49152 days 7 hrs ago0xa12f7d0b8c5bd80dbf5f2bc40a7780202debe63fOUT 0x441835c54e60f844a5e564dc67d00d0d5561e45e0 MATIC0.0009749410
0x494d92564d799a9a31bf5a89c272dfc5f1b889b38239875c61216adc1878ac7f0xec79af5f242727732022-01-26 5:58:11152 days 8 hrs ago0xa12f7d0b8c5bd80dbf5f2bc40a7780202debe63fOUT 0x441835c54e60f844a5e564dc67d00d0d5561e45e0 MATIC0.0043401210
0xf4cebe5908c249e293ebe88324f6eff4906c668e1fd61edfa64fab1c9141f0f20x3df25c1d242724082022-01-26 5:44:19152 days 8 hrs ago0xa12f7d0b8c5bd80dbf5f2bc40a7780202debe63fOUT 0x441835c54e60f844a5e564dc67d00d0d5561e45e0 MATIC0.0142352910
0x9cae4265fad234388c0ae014f6a40910260122be0c17a69b003dba93735653240xec79af5f242693652022-01-26 3:41:27152 days 10 hrs ago0xa12f7d0b8c5bd80dbf5f2bc40a7780202debe63fOUT 0x441835c54e60f844a5e564dc67d00d0d5561e45e0 MATIC0.0012245110
0x46af670e14cea15698dfd11e3f9a546e9af17351fe370e004fb7e2f29f6e7ca10xec79af5f242688972022-01-26 3:20:27152 days 10 hrs ago0xa12f7d0b8c5bd80dbf5f2bc40a7780202debe63fOUT 0x441835c54e60f844a5e564dc67d00d0d5561e45e0 MATIC0.0009776910
0x6243b38d5459be56943d0e7b0eb1a685c83d0f7839ee4937bddfa8e266f15aa30xa7ed88f4242686912022-01-26 3:10:47152 days 11 hrs ago0xa12f7d0b8c5bd80dbf5f2bc40a7780202debe63fOUT 0x441835c54e60f844a5e564dc67d00d0d5561e45e0 MATIC0.0011155710
[ Download CSV Export 
Latest 4 internal transactions
Parent Txn Hash Block From To Value
0xff8bba9cedc5a928567854e4d66152a6d4bf6595c021a281a39adcc659f3e979242637372022-01-25 23:04:55152 days 15 hrs ago 0xd5d300cafd1632d9c45e1c43e656dd0a9f1ac8250xa12f7d0b8c5bd80dbf5f2bc40a7780202debe63f1 MATIC
0x9fac6822c5efa4c2c97c0879918514d7ba8e14aaf919284f62cb317b33eee1ef241436202022-01-22 7:51:05156 days 6 hrs ago 0xd5d300cafd1632d9c45e1c43e656dd0a9f1ac8250xa12f7d0b8c5bd80dbf5f2bc40a7780202debe63f1 MATIC
0xf353a72bad3ac5468f05650971f00986e2e49a61724bb9ac5f3cefb0f49c8242240511742022-01-19 14:30:49158 days 23 hrs ago 0xd5d300cafd1632d9c45e1c43e656dd0a9f1ac8250xa12f7d0b8c5bd80dbf5f2bc40a7780202debe63f1 MATIC
0xd134a0acb8d13767ec7bc0170e3367d9b47a7b9106ea09bc418e91fc887b296a236001382022-01-06 12:22:53172 days 1 hr ago 0xd5d300cafd1632d9c45e1c43e656dd0a9f1ac8250xa12f7d0b8c5bd80dbf5f2bc40a7780202debe63f1 MATIC
[ Download CSV Export 
Loading

Contract Name:
0 MATIC

Compiler Version
0

Optimization Enabled:
0 MATIC

Other Settings:
-NA-
Block Transaction Gas Used Reward
Age Block Fee Address BC Fee Address Voting Power Jailed Incoming
Block Uncle Number Difficulty Gas Used Reward
Loading